Regional Weather Roundup
Issued by NWS

Home | Current Version | Previous Version | Text Only | Print | Product List | Glossary Off
Versions: 1 2 3 4 5 6 7 8 9 10 11 12 13 14 15 16 17 18 19 20 21 22 23 24 25 26 27 28 29 30 31 32 33 34 35 36 37 38 39 40 41 42 43 44 45 46 47 48 49 50

531
ASUS43 KBIS 181802
RWRND

NORTH DAKOTA REGIONAL WEATHER ROUNDUP
NATIONAL WEATHER SERVICE BISMARCK ND
100 PM CDT FRI AUG 18 2017

NOTE: "FAIR" INDICATES FEW OR NO CLOUDS BELOW 12,000 FEET WITH NO
SIGNIFICANT WEATHER AND/OR OBSTRUCTIONS TO VISIBILITY.


NDZ001>003-009>011-017-181900-
NORTHWEST NORTH DAKOTA

CITY           SKY/WX    TMP DP  RH WIND       PRES   REMARKS
WILLISTON      SUNNY     79  52  38 VRB3      29.96F
6HR MIN TEMP:  56; 6HR MAX TEMP:  79;

MINOT          SUNNY     79  50  36 W14G20    29.92F
MINOT AFB      SUNNY     79  46  31 NW16      29.91S
$$

NDZ018>021-031>035-040>046-181900-
SOUTHWEST NORTH DAKOTA

CITY           SKY/WX    TMP DP  RH WIND       PRES   REMARKS
BISMARCK       SUNNY     76  56  49 W7        29.97R
6HR MIN TEMP:  58; 6HR MAX TEMP:  76;

DICKINSON      SUNNY     79  50  36 NW5       29.99F
GARRISON         N/A     77  52  41 NW8G18    29.95S
6HR MIN TEMP:  51; 6HR MAX TEMP:  77;

HETTINGER ARPT SUNNY     79  48  33 N7        30.02F
$$

NDZ004>008-012>016-024-026-027-054-181900-
NORTHEAST NORTH DAKOTA

CITY           SKY/WX    TMP DP  RH WIND       PRES   REMARKS
GRAND FORKS    PTSUNNY   80  58  46 NW8       29.85R
GRND FRKS AFB  MOSUNNY   76  60  55 NW8       29.87R
DEVILS LAKE    SUNNY     74  58  57 NW15      29.90F
$$

NDZ022-023-025-028>030-036>039-047>053-181900-
SOUTHEAST NORTH DAKOTA

CITY           SKY/WX    TMP DP  RH WIND       PRES   REMARKS
FARGO          CLOUDY    76  61  59 SW7       29.87F
6HR MIN TEMP:  62; 6HR MAX TEMP:  76;

JAMESTOWN      CLOUDY    67  59  75 NW8       29.92R
$$





USA.gov is the U.S. government's official web portal to all federal, state and local government web resources and services.